Location: Austin
(30.3000°N, 97.7500°W)
Time: 04:24:00
(UTC-05:00)

Cosmos 2056 Rocket - Pass Details

Date: 18 March 2023
Orbit: 742 x 799 km, 74.0° (Epoch: 01 April)

Event Time Altitude Azimuth Distance (km) Brightness Sun altitude
Rises 20:45:12 0° 192° (SSW) 3,204 6.8 -14.6°
Reaches altitude 10° 20:47:34 10° 191° (S) 2,274 6.0 -15.1°
Maximum altitude 20:52:43 79° 104° (ESE) 765 3.3 -16.2°
Drops below altitude 10° 20:57:49 10° 19° (NNE) 2,260 5.8 -17.3°
Sets 21:00:10 0° 18° (NNE) 3,183 6.6 -17.8°
